When you browse on this site, cookies collect data to enhance your experience and personalize the content and advertising you see.
Visit our Privacy Policy to learn more. By continuing to use the site, you agree to this use of cookies and data.
  • In Österreich
  • Länderverzeichnis
  • Für 7 Tage
  • Wassertemperatur
  • Wetterkarte
  • News
  • Widgets
  • user-avatar
    Anmelden

    Stündliche Wetter Tepeapulco

    Heute, 8 Dezember, Sonntag

    Zeit Temperatur Niederschläge Wind Luftdruck Luftfeuchtigkeit
    00:00 +9°C° 0 mm 1 m/S 562 mmHg 90%
    01:00 +8°C° 0 mm 0 m/S 562 mmHg 89%
    02:00 +7°C° 0 mm 0 m/S 561 mmHg 89%
    03:00 +7°C° 0 mm 0 m/S 561 mmHg 88%
    04:00 +7°C° 0 mm 0 m/S 561 mmHg 88%
    05:00 +7°C° 0 mm 0 m/S 561 mmHg 87%
    06:00 +8°C° 0 mm 0 m/S 562 mmHg 79%
    07:00 +10°C° 0 mm 0 m/S 563 mmHg 71%
    08:00 +12°C° 0 mm 0 m/S 564 mmHg 63%
    09:00 +15°C° 0 mm 1 m/S 565 mmHg 53%
    10:00 +18°C° 0 mm 1 m/S 566 mmHg 42%
    11:00 +20°C° 0 mm 1 m/S 566 mmHg 31%
    12:00 +21°C° 0 mm 1 m/S 566 mmHg 29%
    13:00 +21°C° 0 mm 1 m/S 566 mmHg 26%
    14:00 +22°C° 0 mm 1 m/S 565 mmHg 24%
    15:00 +20°C° 0 mm 1 m/S 564 mmHg 32%
    16:00 +17°C° 0 mm 2 m/S 564 mmHg 40%
    17:00 +16°C° 0 mm 2 m/S 563 mmHg 47%
    18:00 +15°C° 0 mm 1 m/S 563 mmHg 53%
    19:00 +14°C° 0 mm 1 m/S 562 mmHg 58%
    20:00 +13°C° 0 mm 1 m/S 562 mmHg 64%
    21:00 +12°C° 0 mm 1 m/S 562 mmHg 65%
    22:00 +11°C° 0 mm 0 m/S 562 mmHg 66%
    23:00 +10°C° 0 mm 0 m/S 561 mmHg 67%

    Morgen, 9 Dezember, Montag

    Zeit Temperatur Niederschläge Wind Luftdruck Luftfeuchtigkeit
    00:00 +10°C° 0 mm 0 m/S 561 mmHg 67%
    01:00 +10°C° 0 mm 0 m/S 561 mmHg 68%
    02:00 +9°C° 0 mm 0 m/S 560 mmHg 68%
    03:00 +9°C° 0 mm 0 m/S 560 mmHg 68%
    04:00 +9°C° 0 mm 0 m/S 560 mmHg 69%
    05:00 +8°C° 0 mm 0 m/S 560 mmHg 69%
    06:00 +11°C° 0 mm 1 m/S 561 mmHg 63%
    07:00 +13°C° 0 mm 1 m/S 562 mmHg 56%
    08:00 +15°C° 0 mm 1 m/S 563 mmHg 49%
    09:00 +16°C° 0 mm 1 m/S 564 mmHg 41%
    10:00 +19°C° 0 mm 1 m/S 564 mmHg 32%
    11:00 +21°C° 0 mm 1 m/S 565 mmHg 24%
    12:00 +22°C° 0 mm 1 m/S 564 mmHg 23%
    13:00 +22°C° 0 mm 1 m/S 564 mmHg 22%
    14:00 +23°C° 0 mm 2 m/S 564 mmHg 21%
    15:00 +21°C° 0 mm 1 m/S 563 mmHg 30%
    16:00 +19°C° 0 mm 1 m/S 562 mmHg 39%
    17:00 +16°C° 0 mm 1 m/S 561 mmHg 48%
    18:00 +15°C° 0 mm 1 m/S 561 mmHg 54%
    19:00 +14°C° 0 mm 1 m/S 561 mmHg 61%
    20:00 +13°C° 0 mm 1 m/S 561 mmHg 68%
    21:00 +12°C° 0 mm 1 m/S 561 mmHg 70%
    22:00 +12°C° 0 mm 1 m/S 560 mmHg 73%
    23:00 +11°C° 0 mm 1 m/S 560 mmHg 75%

    übermorgen, 10 Dezember, Dienstag

    Zeit Temperatur Niederschläge Wind Luftdruck Luftfeuchtigkeit
    00:00 +11°C° 0 mm 1 m/S 560 mmHg 75%
    01:00 +11°C° 0 mm 1 m/S 559 mmHg 76%
    02:00 +10°C° 0 mm 1 m/S 559 mmHg 76%
    03:00 +10°C° 0 mm 1 m/S 559 mmHg 77%
    04:00 +10°C° 0 mm 1 m/S 559 mmHg 77%
    05:00 +9°C° 0 mm 1 m/S 559 mmHg 78%
    06:00 +11°C° 0 mm 1 m/S 560 mmHg 73%
    07:00 +12°C° 0 mm 1 m/S 561 mmHg 67%
    08:00 +14°C° 0 mm 1 m/S 562 mmHg 62%
    09:00 +15°C° 0 mm 1 m/S 563 mmHg 54%
    10:00 +18°C° 0 mm 1 m/S 564 mmHg 46%
    11:00 +20°C° 0 mm 1 m/S 564 mmHg 37%
    12:00 +21°C° 0 mm 1 m/S 564 mmHg 34%
    13:00 +21°C° 0 mm 1 m/S 564 mmHg 31%
    14:00 +22°C° 0 mm 1 m/S 564 mmHg 28%
    15:00 +20°C° 0 mm 1 m/S 563 mmHg 37%
    16:00 +18°C° 0 mm 1 m/S 563 mmHg 47%
    17:00 +15°C° 0 mm 2 m/S 562 mmHg 56%
    18:00 +14°C° 0 mm 2 m/S 563 mmHg 64%
    19:00 +13°C° 0 mm 2 m/S 563 mmHg 71%
    20:00 +11°C° 0 mm 3 m/S 563 mmHg 78%
    21:00 +10°C° 0 mm 2 m/S 563 mmHg 80%
    22:00 +10°C° 0 mm 2 m/S 563 mmHg 81%
    23:00 +9°C° 0 mm 2 m/S 563 mmHg 83%

    11 Dezember, Mittwoch

    Zeit Temperatur Niederschläge Wind Luftdruck Luftfeuchtigkeit
    00:00 +9°C° 0 mm 2 m/S 563 mmHg 84%
    01:00 +9°C° 0 mm 2 m/S 563 mmHg 86%
    02:00 +9°C° 0 mm 2 m/S 562 mmHg 87%
    03:00 +8°C° 0 mm 2 m/S 562 mmHg 88%
    04:00 +8°C° 0 mm 2 m/S 562 mmHg 90%
    05:00 +7°C° 0 mm 2 m/S 562 mmHg 91%
    06:00 +8°C° 0 mm 2 m/S 563 mmHg 87%
    07:00 +8°C° 0 mm 2 m/S 563 mmHg 82%
    08:00 +9°C° 0 mm 2 m/S 564 mmHg 78%
    09:00 +12°C° 0 mm 2 m/S 565 mmHg 69%
    10:00 +13°C° 0 mm 2 m/S 565 mmHg 60%
    11:00 +15°C° 0 mm 2 m/S 566 mmHg 51%
    12:00 +16°C° 0 mm 2 m/S 566 mmHg 48%
    13:00 +17°C° 0 mm 2 m/S 566 mmHg 45%
    14:00 +18°C° 0 mm 2 m/S 565 mmHg 42%
    15:00 +16°C° 0 mm 2 m/S 565 mmHg 49%
    16:00 +14°C° 0 mm 2 m/S 564 mmHg 57%
    17:00 +13°C° 0 mm 2 m/S 563 mmHg 64%
    18:00 +12°C° 0 mm 2 m/S 563 mmHg 69%
    19:00 +11°C° 0 mm 1 m/S 563 mmHg 74%
    20:00 +10°C° 0 mm 1 m/S 563 mmHg 80%
    21:00 +10°C° 0 mm 1 m/S 563 mmHg 80%
    22:00 +10°C° 0 mm 1 m/S 563 mmHg 81%
    23:00 +10°C° 0 mm 1 m/S 563 mmHg 81%

    12 Dezember, Donnerstag

    Zeit Temperatur Niederschläge Wind Luftdruck Luftfeuchtigkeit
    00:00 +10°C° 0 mm 1 m/S 562 mmHg 81%
    01:00 +9°C° 0 mm 1 m/S 562 mmHg 81%
    02:00 +9°C° 0 mm 1 m/S 562 mmHg 81%
    03:00 +9°C° 0 mm 1 m/S 562 mmHg 80%
    04:00 +9°C° 0 mm 1 m/S 562 mmHg 78%
    05:00 +9°C° 0 mm 1 m/S 562 mmHg 77%
    06:00 +11°C° 0 mm 1 m/S 563 mmHg 70%
    07:00 +12°C° 0 mm 1 m/S 564 mmHg 63%
    08:00 +14°C° 0 mm 1 m/S 565 mmHg 56%
    09:00 +16°C° 0 mm 1 m/S 565 mmHg 49%
    10:00 +18°C° 0 mm 1 m/S 566 mmHg 43%
    11:00 +19°C° 0 mm 2 m/S 566 mmHg 37%
    12:00 +19°C° 0 mm 2 m/S 566 mmHg 35%
    13:00 +20°C° 0 mm 2 m/S 565 mmHg 34%
    14:00 +20°C° 0 mm 3 m/S 565 mmHg 33%
    15:00 +19°C° 0.1 mm 3 m/S 564 mmHg 42%
    16:00 +17°C° 0.1 mm 3 m/S 564 mmHg 50%
    17:00 +14°C° 0.1 mm 3 m/S 563 mmHg 59%
    18:00 +15°C° 0.2 mm 2 m/S 563 mmHg 63%
    19:00 +14°C° 0.2 mm 1 m/S 563 mmHg 66%
    20:00 +14°C° 0.2 mm 1 m/S 563 mmHg 70%
    21:00 +13°C° 0 mm 1 m/S 563 mmHg 71%
    22:00 +12°C° 0 mm 0 m/S 563 mmHg 71%
    23:00 +12°C° 0 mm 0 m/S 563 mmHg 72%

    13 Dezember, Freitag

    Zeit Temperatur Niederschläge Wind Luftdruck Luftfeuchtigkeit
    00:00 +11°C° 0 mm 0 m/S 562 mmHg 72%
    01:00 +11°C° 0 mm 0 m/S 562 mmHg 72%
    02:00 +11°C° 0 mm 0 m/S 562 mmHg 72%
    03:00 +11°C° 0 mm 0 m/S 562 mmHg 71%
    04:00 +11°C° 0 mm 0 m/S 562 mmHg 71%
    05:00 +12°C° 0 mm 1 m/S 562 mmHg 71%
    06:00 +12°C° 0 mm 1 m/S 563 mmHg 67%
    07:00 +13°C° 0 mm 1 m/S 564 mmHg 64%
    08:00 +14°C° 0 mm 1 m/S 565 mmHg 60%
    09:00 +15°C° 0 mm 1 m/S 565 mmHg 56%
    10:00 +16°C° 0 mm 1 m/S 565 mmHg 52%
    11:00 +17°C° 0 mm 2 m/S 565 mmHg 48%
    12:00 +17°C° 0 mm 2 m/S 564 mmHg 45%
    13:00 +18°C° 0 mm 2 m/S 564 mmHg 43%
    14:00 +18°C° 0 mm 3 m/S 563 mmHg 41%
    15:00 +17°C° 0 mm 2 m/S 563 mmHg 48%
    16:00 +15°C° 0 mm 1 m/S 562 mmHg 54%
    17:00 +14°C° 0 mm 1 m/S 562 mmHg 61%
    18:00 +13°C° 0 mm 1 m/S 562 mmHg 66%
    19:00 +13°C° 0 mm 1 m/S 562 mmHg 71%
    20:00 +12°C° 0 mm 1 m/S 562 mmHg 77%
    21:00 +10°C° 0 mm 0 m/S 562 mmHg 77%
    22:00 +10°C° 0 mm 0 m/S 562 mmHg 77%
    23:00 +10°C° 0 mm 0 m/S 561 mmHg 77%
    Mehr zeigen